Regional Weather Roundup
Issued by NWS

Home | Current Version | Previous Version | Text Only | Print | Product List | Glossary On
Versions: 1 2 3 4 5 6 7 8 9 10 11 12 13 14 15 16 17 18 19 20 21 22 23 24 25 26 27 28
000
ASUS44 KLIX 272011
RWRLA
LOUISIANA WEATHER ROUNDUP
NATIONAL WEATHER SERVICE NEW ORLEANS LA
300 PM CDT FRI MAY 27 2016

NOTE: "FAIR" INDICATES FEW OR NO CLOUDS BELOW 12,000 FEET WITH NO
      SIGNIFICANT WEATHER AND/OR OBSTRUCTIONS TO VISIBILITY.
      SKY/WX - SKY CONDITION AND SIGNIFICANT WEATHER.
      TMP - AIR TEMPERATURE.    DP   - DEWPOINT TEMPERATURE.
      RH  - RELATIVE HUMIDITY.  PRES - PRESSURE.
      HX  - HEAT INDEX.         WCI  - WIND CHILL INDEX.

*  THESE STATIONS ARE NOT NWS OR FAA STATIONS AND ARE NOT UNDER
   NWS QUALITY CONTROL.

LAZ040-048-061>063-065-066-069-272100-
SOUTHEAST LOUISIANA

CITY           SKY/WX    TMP DP  RH WIND       PRES   REMARKS
N.O. AUDUBON     N/A     88  67  50 MISG        N/A
N.O. INTL ARPT PTSUNNY   85  65  51 SE15      29.91F
N.O. LAKEFRONT PTSUNNY   84  67  56 SE17      29.92F
N.O. DOWNTOWN* MOCLDY    85  69  58 SE15      29.93F
RESERVE*       FAIR      86  68  55 SE18G24   29.91S
SLIDELL        CLOUDY    82  68  62 SE17G25   29.92F
BATON ROUGE    CLOUDY    85  67  54 E13G18    29.89S
BOOTHVILLE     MOSUNNY   81  68  64 SE13G22   29.95F
BELLE CHASSE   PTSUNNY   82  70  66 SE17G25   29.92F
BOGALUSA*      FAIR      84  63  47 S15G22    29.94F
GALLIANO*      CLOUDY    84  68  58 SE16      29.92F
NEW ROADS*     FAIR      84  68  57 SE17      29.89S
GONZALES*      CLOUDY    84  69  60 SE12G21   29.88F
HAMMOND*       MOSUNNY   82  61  47 S14G25    29.91F
HOUMA*         MOSUNNY   79  72  78 SE12G17   29.95S
PORT FOURCHON* PTCLDY    81  68  65 SE15G26   29.92F

$$

LAZ041-044-053-054-272100-
SOUTHWEST LOUISIANA

CITY           SKY/WX    TMP DP  RH WIND       PRES   REMARKS
LAKE CHARLES   CLOUDY    81  70  69 S20G28    29.86R
LAFAYETTE      CLOUDY    85  67  54 S12G24    29.88R
PATTERSON      MOSUNNY   84  70  62 SE20G28   29.89
SALT POINT       N/A     83  72  69 SE12G20   29.86F
NEW IBERIA     CLOUDY    85  67  54 S20G29    29.89R
CHENAULT AIRPK PTSUNNY   82  72  69 SE18G30   29.86R

$$

LAZ027-028-272100-
CENTRAL LOUISIANA

CITY           SKY/WX    TMP DP  RH WIND       PRES   REMARKS
FORT POLK      TSTM      79  73  83 S10       29.85R
ALEXANDRIA INT CLOUDY    79  74  84 SE7       29.84S
ALEXANDRIA     CLOUDY    82  73  74 SE3       29.86F

$$

LAZ001-002-272100-
NORTHWEST LOUISIANA

CITY           SKY/WX    TMP DP  RH WIND       PRES   REMARKS
SHREVEPORT     TSTM      68  67  96 E16G25    29.81F FOG
BARKSDALE AFB  LGT RAIN  68  68 100 SE17      29.83F
DTN SHREVEPORT RAIN      69  66  90 E18G25    29.83F FOG

$$

LAZ014-016-272100-
NORTHEAST LOUISIANA

CITY           SKY/WX    TMP DP  RH WIND       PRES   REMARKS
MONROE         PTSUNNY   82  71  69 SW8       29.89F
TALLULAH       CLOUDY    85  69  58 S15G23    29.89S

$$





USA.gov is the U.S. government's official web portal to all federal, state and local government web resources and services.